星链-1475 (STARLINK-1475 )

导读

STARLINK-1475是美国SpaceX星链项目中的卫星,于2020年6月13日发射入轨,属于星链低轨互联网星座的组成部分。星链星座旨在为全球提供高速卫星互联网接入服务,该卫星承担为用户提供宽带网络信号传输的任务,服务覆盖包括偏远地区在内的全球范围,助力星链星座完成全球通信网络的构建。

Basic Information
目录编号:
45739
目录名称:
STARLINK-1475
国际标识:
2020-038K
轨道中心:
EARTH
卫星名称:
星链-1475
卫星全名:
星链-1475 (STARLINK-1475 )
卫星状态:
已陨落 最后检测时间 2025-12-14
发射日期:
2020-06-13 UTC
国别 :
美国 (US)
星等 :
--
Orbit Information
数据来源 国际轨道数据
星历时间: 2025-12-14T02:46:31+0800
轨道信息已过期181天
半长轴: 6540.714km
偏心率: 0.0008836
轨道倾角: 53.028°
近地点辐角 332.577°
升交点赤经 98.871°
平近点角 27.481°
近地点: 156.799km
远地点: 168.359km
周期: 87.740分钟
每日圈数: 16.412133
Detailed Information
固有亮度:
5
最大亮度:
2.5
卫星平台:
Starlink V1.0
覆盖范围:
全球
运营商:
太空探索技术公司
运营商所在国:
美国
制造商(研发单位):
太空探索技术公司
制造商所在国:
美国
使用方式:
暂无
Satellite Introduction
星链(Starlink)计划是由太空探索技术公司(SpaceX)提出的一个巨型低轨卫星互联网星座项目,计划在2019年至2024年间在太空搭建由约1.2万颗卫星组成的“星链”网络,其中1584颗将部署在地球上空550千米处的近地轨道,并从2020年开始工作。该卫星仍在工作。